This is the latest recevied weather packets stored in our database for station/object W6JCZ-13. If no packets are shown the sender has not sent any weather packets the latest 10 day(s).
| Time | Temp. | Humidity | Pressure | Rain* | Wind** | Luminosity | Snow |
|---|---|---|---|---|---|---|---|
| 1778025916 | 19.44° C | 67% | 1012.7 hPa | 0 mm | - | - | - |
| 1778025316 | 19.44° C | 67% | 1012.7 hPa | 0 mm | - | - | - |
| 1778024716 | 19.44° C | 67% | 1012.6 hPa | 0 mm | - | - | - |
| 1778024116 | 19.44° C | 68% | 1012.6 hPa | 0 mm | - | - | - |
| 1778023516 | 19.44° C | 66% | 1012.6 hPa | 0 mm | - | - | - |
| 1778022916 | 20° C | 67% | 1012.7 hPa | 0 mm | - | - | - |
| 1778022316 | 20° C | 64% | 1012.7 hPa | 0 mm | - | - | - |
| 1778021716 | 20.56° C | 66% | 1012.8 hPa | 0 mm | - | - | - |
| 1778021116 | 19.44° C | 66% | 1012.9 hPa | 0 mm | - | - | - |
| 1778020516 | 19.44° C | 68% | 1012.9 hPa | 0 mm | - | - | - |
| 1778019916 | 19.44° C | 68% | 1013 hPa | 0 mm | - | - | - |
| 1778019316 | 21.11° C | 66% | 1013.2 hPa | 0 mm | - | - | - |
| 1778018716 | 20.56° C | 66% | 1013.3 hPa | 0 mm | - | - | - |
| 1778018116 | 18.89° C | 67% | 1013.4 hPa | 0 mm | - | - | - |
| 1778017516 | 18.89° C | 68% | 1013.5 hPa | 0 mm | - | - | - |
| 1778016916 | 18.89° C | 70% | 1013.5 hPa | 0 mm | - | - | - |
| 1778016316 | 18.89° C | 69% | 1013.6 hPa | 0 mm | - | - | - |
| 1778015715 | 18.89° C | 69% | 1013.7 hPa | 0 mm | - | - | - |
| 1778015116 | 18.33° C | 69% | 1013.8 hPa | 0 mm | - | - | - |
| 1778014516 | 18.89° C | 70% | 1013.7 hPa | 0 mm | - | - | - |
| 1778013916 | 18.89° C | 70% | 1013.8 hPa | 0 mm | - | - | - |
| 1778012716 | 18.89° C | 69% | 1013.7 hPa | 0 mm | - | - | - |
| 1778012116 | 17.78° C | 71% | 1014 hPa | 0 mm | - | - | - |
| 1778011516 | 17.78° C | 71% | 1014.1 hPa | 0 mm | - | - | - |
| 1778010916 | 17.78° C | 70% | 1014 hPa | 0 mm | - | - | - |
* Rain latest hour (hover to see other rain measurements)
** Current wind speed in m/s (hover to see current wind gust speed)